Location: Newark
(34.0131°N, 4.3314°W)
Time: 03:18:28
(UTC+00:00)

A-11 Canister half - Pass Details

Date: 30 October 2019
Orbit: 1514 x 1686 km, 47.2° (Epoch: 18 November)

Event Time Altitude Azimuth Distance (km) Brightness Sun altitude
Rises 21:25:56 0° 207° (SSW) 4,917 11.7 -49.6°
Enters shadow 21:27:25 - 205° (SSW) 4,478 11.4 -49.9°
Reaches altitude 10° 21:29:16 10° 201° (SSW) 3,937 - -50.3°
Maximum altitude 21:38:44 46° 132° (SE) 2,144 - -52.1°
Drops below altitude 10° 21:48:07 10° 63° (ENE) 3,908 - -53.9°
Sets 21:51:23 0° 58° (ENE) 4,879 - -54.5°
